Location: Beddau
(51.5575°N, 3.3561°W)
Time: 02:12:20
(UTC+00:00)

MOS 1 Rocket - Pass Details

Date: 03 March 2021
Orbit: 615 x 829 km, 97.4° (Epoch: 13 April)

Event Time Altitude Azimuth Distance (km) Brightness Sun altitude
Rises 18:31:05 0° 12° (NNE) 3,158 6.5 -6.0°
Reaches altitude 10° 18:33:19 10° 12° (NNE) 2,264 5.8 -6.4°
Maximum altitude 18:38:20 83° 286° (WNW) 786 3.7 -7.1°
Drops below altitude 10° 18:43:36 10° 199° (SSW) 2,371 6.3 -8.0°
Sets 18:45:59 0° 198° (SSW) 3,319 7.0 -8.3°
